QPF
0.00 0.00 0.00 0.00 0.00 0.00 0.00 0.00 0.00 0.00 0.00 0.00 0.00 0.00 0.00 0.00 0.00 0.00 0.00 0.00 0.00 0.00 0.00 0.00 0.00 0.00 0.00 0.00 0.01 0.01 0.01 0.01 0.01 0.01 0.02 0.03 0.05 0.06
0.00 0.00 0.00 0.00 0.00 0.00 0.00 0.00 0.00 0.00 0.00 0.00 0.00 0.00 0.00 0.00 0.00 0.00 0.00 0.00 0.00 0.00 0.00 0.00 0.00 0.00 0.01 0.01 0.01 0.01 0.01 0.01 0.01 0.01 0.02 0.02 0.04 0.05
0.00 0.00 0.00 0.00 0.00 0.00 0.00 0.00 0.00 0.00 0.00 0.00 0.00 0.00 0.01 0.01 0.01 0.01 0.01 0.01 0.00 0.00 0.00 0.00 0.00 0.00 0.01 0.01 0.01 0.02 0.02 0.02 0.02 0.02 0.02 0.02 0.03 0.04
0.00 0.00 0.00 0.00 0.00 0.00 0.00 0.00 0.00 0.01 0.01 0.01 0.00 0.00 0.01 0.01 0.02 0.02 0.01 0.01 0.01 0.00 0.00 0.00 0.00 0.00 0.01 0.01 0.01 0.01 0.01 0.01 0.01 0.02 0.02 0.03 0.04 0.05
0.00 0.00 0.00 0.00 0.00 0.00 0.01 0.01 0.01 0.01 0.01 0.02 0.01 0.01 0.01 0.01 0.02 0.02 0.02 0.02 0.01 0.00 0.00 0.00 0.00 0.00 0.00 0.01 0.01 0.01 0.01 0.00 0.00 0.00 0.01 0.01 0.03 0.04
0.00 0.00 0.00 0.00 0.01 0.01 0.01 0.02 0.03 0.03 0.03 0.03 0.03 0.02 0.02 0.02 0.03 0.03 0.02 0.02 0.02 0.01 0.01 0.01 0.01 0.01 0.00 0.00 0.00 0.00 0.00 0.00 0.00 0.00 0.00 0.01 0.01 0.02
0.00 0.00 0.00 0.00 0.00 0.01 0.02 0.03 0.05 0.05 0.05 0.05 0.04 0.04 0.03 0.03 0.04 0.04 0.03 0.02 0.02 0.02 0.02 0.03 0.03 0.03 0.03 0.02 0.01 0.01 0.00 0.00 0.00 0.01 0.01 0.01 0.01 0.01
0.00 0.00 0.00 0.00 0.00 0.00 0.01 0.01 0.03 0.04 0.05 0.05 0.05 0.05 0.04 0.05 0.05 0.04 0.04 0.04 0.02 0.02 0.04 0.03 0.03 0.03 0.03 0.04 0.02 0.01 0.00 0.00 0.00 0.01 0.01 0.02 0.02 0.02
0.01 0.01 0.01 0.00 0.01 0.02 0.01 0.01 0.01 0.02 0.03 0.06 0.06 0.06 0.06 0.06 0.06 0.05 0.05 0.05 0.04 0.03 0.05 0.04 0.03 0.03 0.03 0.02 0.01 0.00 0.00 0.00 0.00 0.00 0.01 0.02 0.02 0.02
0.01 0.01 0.01 0.02 0.02 0.01 0.01 0.01 0.02 0.03 0.03 0.04 0.06 0.05 0.05 0.05 0.05 0.06 0.05 0.05 0.03 0.04 0.06 0.05 0.03 0.04 0.03 0.04 0.02 0.01 0.01 0.01 0.01 0.01 0.01 0.02 0.03 0.02
0.01 0.01 0.01 0.02 0.01 0.00 0.01 0.02 0.02 0.03 0.01 0.01 0.02 0.02 0.03 0.03 0.04 0.05 0.06 0.05 0.04 0.02 0.05 0.05 0.04 0.03 0.03 0.05 0.05 0.02 0.01 0.01 0.01 0.01 0.01 0.01 0.02 0.02
0.01 0.01 0.01 0.01 0.00 0.00 0.01 0.03 0.03 0.03 0.02 0.02 0.03 0.04 0.05 0.05 0.04 0.05 0.07 0.06 0.05 0.03 0.04 0.04 0.03 0.04 0.04 0.04 0.05 0.05 0.04 0.03 0.01 0.01 0.01 0.01 0.01 0.03
0.01 0.01 0.02 0.00 0.00 0.00 0.00 0.02 0.03 0.01 0.02 0.04 0.05 0.05 0.04 0.04 0.04 0.05 0.05 0.05 0.06 0.05 0.04 0.05 0.04 0.04 0.05 0.03 0.03 0.04 0.05 0.05 0.04 0.03 0.02 0.02 0.01 0.04
0.02 0.02 0.01 0.00 0.00 0.00 0.01 0.01 0.01 0.02 0.04 0.05 0.05 0.04 0.04 0.04 0.04 0.04 0.04 0.04 0.04 0.04 0.04 0.05 0.05 0.05 0.05 0.03 0.03 0.03 0.03 0.05 0.06 0.06 0.05 0.04 0.03 0.04
0.01 0.01 0.00 0.00 0.01 0.02 0.01 0.02 0.03 0.05 0.05 0.05 0.05 0.04 0.04 0.04 0.03 0.03 0.03 0.03 0.03 0.03 0.03 0.03 0.05 0.04 0.05 0.05 0.04 0.03 0.03 0.04 0.05 0.06 0.06 0.04 0.04 0.04
0.01 0.01 0.01 0.01 0.01 0.02 0.02 0.03 0.05 0.05 0.04 0.05 0.05 0.04 0.04 0.03 0.03 0.03 0.02 0.02 0.02 0.02 0.02 0.03 0.03 0.04 0.04 0.04 0.05 0.05 0.05 0.04 0.04 0.05 0.05 0.05 0.05 0.05
0.01 0.01 0.02 0.02 0.01 0.01 0.02 0.03 0.04 0.04 0.04 0.05 0.04 0.03 0.03 0.03 0.03 0.03 0.03 0.02 0.02 0.02 0.02 0.02 0.03 0.04 0.04 0.04 0.05 0.05 0.06 0.06 0.06 0.06 0.06 0.06 0.06 0.05
0.01 0.02 0.02 0.02 0.01 0.01 0.02 0.03 0.04 0.04 0.04 0.04 0.05 0.04 0.03 0.02 0.02 0.02 0.02 0.02 0.02 0.02 0.02 0.02 0.02 0.03 0.03 0.04 0.08 0.09 0.07 0.08 0.08 0.08 0.07 0.07 0.08 0.07
0.01 0.02 0.02 0.02 0.02 0.02 0.02 0.02 0.02 0.03 0.03 0.04 0.04 0.04 0.04 0.03 0.02 0.02 0.02 0.02 0.02 0.02 0.02 0.02 0.01 0.02 0.02 0.04 0.07 0.13 0.11 0.08 0.08 0.09 0.08 0.07 0.08 0.09
0.01 0.02 0.02 0.02 0.02 0.02 0.01 0.01 0.01 0.02 0.02 0.03 0.03 0.03 0.04 0.03 0.02 0.02 0.02 0.01 0.01 0.01 0.02 0.02 0.02 0.03 0.04 0.06 0.11 0.14 0.14 0.08 0.06 0.08 0.09 0.08 0.10 0.12
0.01 0.01 0.02 0.02 0.02 0.01 0.01 0.01 0.01 0.02 0.02 0.02 0.02 0.03 0.03 0.02 0.02 0.02 0.01 0.01 0.01 0.01 0.02 0.04 0.05 0.05 0.03 0.02 0.07 0.12 0.14 0.14 0.09 0.07 0.07 0.07 0.08 0.07
0.01 0.01 0.01 0.01 0.01 0.01 0.01 0.01 0.01 0.01 0.01 0.01 0.01 0.02 0.02 0.02 0.01 0.01 0.01 0.01 0.01 0.01 0.02 0.03 0.03 0.01 0.01 0.02 0.07 0.13 0.13 0.11 0.11 0.11 0.10 0.07 0.04 0.04
0.01 0.01 0.01 0.01 0.01 0.01 0.01 0.01 0.01 0.01 0.00 0.00 0.01 0.01 0.01 0.01 0.01 0.01 0.01 0.01 0.01 0.01 0.01 0.01 0.01 0.01 0.01 0.01 0.03 0.05 0.05 0.04 0.03 0.05 0.10 0.11 0.07 0.06
MSLP
1021.91 1021.85 1021.71 1021.46 1021.08 1020.60 1020.04 1019.45 1018.89 1018.38 1017.97 1017.67 1017.47 1017.35 1017.28 1017.23 1017.18 1017.11 1017.03 1016.92 1016.82 1016.73 1016.66 1016.60 1016.55 1016.48 1016.40 1016.29 1016.14 1015.96 1015.76 1015.55 1015.36 1015.21 1015.09 1015.02 1015.00 1015.01
1021.87 1021.80 1021.65 1021.40 1021.05 1020.59 1020.06 1019.49 1018.94 1018.43 1018.00 1017.67 1017.42 1017.23 1017.08 1016.95 1016.80 1016.64 1016.46 1016.27 1016.09 1015.93 1015.80 1015.71 1015.64 1015.59 1015.55 1015.49 1015.40 1015.30 1015.18 1015.04 1014.90 1014.78 1014.67 1014.59 1014.53 1014.50
1021.78 1021.69 1021.55 1021.32 1020.99 1020.57 1020.08 1019.55 1019.03 1018.54 1018.11 1017.74 1017.44 1017.19 1016.96 1016.73 1016.48 1016.22 1015.93 1015.64 1015.36 1015.12 1014.92 1014.77 1014.67 1014.61 1014.57 1014.55 1014.53 1014.50 1014.45 1014.39 1014.32 1014.24 1014.16 1014.08 1014.01 1013.95
1021.69 1021.59 1021.44 1021.22 1020.93 1020.55 1020.12 1019.64 1019.16 1018.69 1018.26 1017.87 1017.52 1017.20 1016.88 1016.56 1016.21 1015.84 1015.45 1015.05 1014.67 1014.33 1014.04 1013.81 1013.65 1013.55 1013.50 1013.48 1013.50 1013.52 1013.54 1013.55 1013.55 1013.53 1013.49 1013.43 1013.37 1013.29
1021.66 1021.52 1021.36 1021.15 1020.88 1020.55 1020.16 1019.73 1019.28 1018.83 1018.39 1017.98 1017.58 1017.20 1016.80 1016.39 1015.96 1015.49 1015.00 1014.51 1014.03 1013.58 1013.19 1012.87 1012.62 1012.46 1012.36 1012.32 1012.34 1012.39 1012.45 1012.52 1012.58 1012.63 1012.64 1012.63 1012.59 1012.53
1021.69 1021.52 1021.33 1021.11 1020.85 1020.54 1020.18 1019.77 1019.35 1018.90 1018.46 1018.01 1017.57 1017.12 1016.66 1016.18 1015.67 1015.13 1014.57 1014.00 1013.44 1012.91 1012.43 1012.00 1011.66 1011.40 1011.23 1011.14 1011.12 1011.16 1011.25 1011.36 1011.48 1011.58 1011.66 1011.70 1011.71 1011.70
1021.78 1021.55 1021.32 1021.07 1020.79 1020.48 1020.13 1019.73 1019.31 1018.85 1018.38 1017.90 1017.41 1016.92 1016.41 1015.88 1015.33 1014.75 1014.16 1013.55 1012.94 1012.34 1011.78 1011.27 1010.83 1010.47 1010.20 1010.03 1009.95 1009.96 1010.04 1010.17 1010.33 1010.48 1010.62 1010.73 1010.81 1010.85
1021.87 1021.57 1021.28 1020.99 1020.68 1020.35 1019.98 1019.57 1019.12 1018.64 1018.14 1017.62 1017.09 1016.55 1016.02 1015.47 1014.91 1014.34 1013.75 1013.14 1012.52 1011.90 1011.29 1010.71 1010.19 1009.73 1009.36 1009.10 1008.95 1008.91 1008.96 1009.08 1009.25 1009.45 1009.65 1009.82 1009.96 1010.06
1021.91 1021.54 1021.18 1020.84 1020.49 1020.11 1019.71 1019.27 1018.78 1018.27 1017.72 1017.17 1016.61 1016.05 1015.51 1014.98 1014.45 1013.91 1013.37 1012.80 1012.21 1011.60 1010.98 1010.36 1009.78 1009.24 1008.79 1008.43 1008.20 1008.08 1008.08 1008.18 1008.35 1008.57 1008.80 1009.02 1009.22 1009.39
1021.85 1021.42 1021.00 1020.60 1020.20 1019.78 1019.33 1018.85 1018.32 1017.77 1017.19 1016.60 1016.02 1015.47 1014.94 1014.45 1013.97 1013.51 1013.03 1012.54 1012.01 1011.45 1010.85 1010.22 1009.60 1009.01 1008.48 1008.04 1007.72 1007.53 1007.47 1007.52 1007.67 1007.88 1008.13 1008.39 1008.62 1008.83
1021.70 1021.22 1020.76 1020.31 1019.86 1019.40 1018.91 1018.38 1017.82 1017.23 1016.62 1016.01 1015.43 1014.89 1014.40 1013.95 1013.54 1013.16 1012.77 1012.37 1011.91 1011.41 1010.85 1010.24 1009.61 1008.98 1008.39 1007.88 1007.48 1007.21 1007.08 1007.07 1007.18 1007.37 1007.61 1007.87 1008.13 1008.37
1021.51 1020.99 1020.49 1020.01 1019.52 1019.02 1018.50 1017.94 1017.34 1016.73 1016.10 1015.49 1014.92 1014.40 1013.94 1013.55 1013.21 1012.90 1012.59 1012.27 1011.89 1011.44 1010.92 1010.34 1009.70 1009.05 1008.42 1007.85 1007.38 1007.04 1006.83 1006.76 1006.81 1006.96 1007.17 1007.43 1007.69 1007.94
1021.32 1020.78 1020.26 1019.75 1019.24 1018.71 1018.16 1017.58 1016.97 1016.34 1015.71 1015.11 1014.55 1014.06 1013.64 1013.29 1013.00 1012.74 1012.50 1012.23 1011.90 1011.50 1011.01 1010.44 1009.80 1009.13 1008.47 1007.85 1007.33 1006.92 1006.64 1006.50 1006.49 1006.59 1006.76 1006.99 1007.25 1007.51
1021.20 1020.65 1020.11 1019.58 1019.05 1018.50 1017.93 1017.33 1016.72 1016.09 1015.48 1014.89 1014.36 1013.89 1013.50 1013.18 1012.92 1012.70 1012.48 1012.23 1011.92 1011.54 1011.06 1010.49 1009.85 1009.17 1008.48 1007.84 1007.26 1006.80 1006.46 1006.26 1006.19 1006.23 1006.37 1006.57 1006.81 1007.07
1021.18 1020.62 1020.06 1019.50 1018.95 1018.38 1017.79 1017.19 1016.58 1015.97 1015.37 1014.81 1014.31 1013.87 1013.50 1013.20 1012.95 1012.73 1012.51 1012.26 1011.95 1011.55 1011.07 1010.49 1009.85 1009.16 1008.46 1007.79 1007.19 1006.69 1006.31 1006.06 1005.94 1005.94 1006.03 1006.20 1006.43 1006.68
1021.24 1020.66 1020.08 1019.49 1018.91 1018.32 1017.72 1017.11 1016.51 1015.92 1015.35 1014.83 1014.36 1013.95 1013.60 1013.31 1013.07 1012.84 1012.60 1012.32 1011.99 1011.57 1011.07 1010.49 1009.84 1009.15 1008.46 1007.79 1007.18 1006.67 1006.27 1005.98 1005.83 1005.79 1005.85 1005.99 1006.20 1006.45
1021.35 1020.75 1020.13 1019.51 1018.88 1018.26 1017.64 1017.04 1016.45 1015.88 1015.35 1014.87 1014.44 1014.07 1013.75 1013.47 1013.23 1012.98 1012.72 1012.43 1012.07 1011.64 1011.13 1010.55 1009.92 1009.25 1008.58 1007.94 1007.35 1006.85 1006.44 1006.15 1005.97 1005.91 1005.94 1006.06 1006.25 1006.49
1021.46 1020.82 1020.16 1019.49 1018.83 1018.17 1017.54 1016.92 1016.35 1015.81 1015.32 1014.88 1014.50 1014.18 1013.89 1013.64 1013.41 1013.17 1012.90 1012.59 1012.23 1011.80 1011.31 1010.76 1010.16 1009.54 1008.92 1008.33 1007.79 1007.32 1006.94 1006.66 1006.48 1006.39 1006.40 1006.50 1006.67 1006.89
1021.52 1020.85 1020.15 1019.44 1018.74 1018.05 1017.39 1016.77 1016.21 1015.69 1015.25 1014.86 1014.53 1014.25 1014.01 1013.80 1013.59 1013.37 1013.12 1012.83 1012.48 1012.09 1011.63 1011.14 1010.61 1010.06 1009.52 1009.01 1008.53 1008.12 1007.78 1007.52 1007.34 1007.25 1007.24 1007.31 1007.44 1007.63
1021.54 1020.85 1020.12 1019.38 1018.64 1017.92 1017.25 1016.62 1016.06 1015.57 1015.16 1014.81 1014.53 1014.30 1014.10 1013.93 1013.76 1013.57 1013.36 1013.11 1012.81 1012.47 1012.08 1011.66 1011.22 1010.77 1010.33 1009.90 1009.51 1009.16 1008.88 1008.65 1008.48 1008.39 1008.36 1008.40 1008.50 1008.64
1021.54 1020.85 1020.11 1019.35 1018.59 1017.86 1017.17 1016.54 1015.98 1015.50 1015.11 1014.79 1014.53 1014.34 1014.18 1014.04 1013.90 1013.76 1013.59 1013.39 1013.15 1012.88 1012.57 1012.24 1011.90 1011.55 1011.21 1010.88 1010.57 1010.30 1010.07 1009.88 1009.73 1009.64 1009.60 1009.61 1009.67 1009.77
1021.58 1020.90 1020.17 1019.42 1018.66 1017.91 1017.22 1016.58 1016.02 1015.54 1015.14 1014.83 1014.58 1014.40 1014.25 1014.12 1014.01 1013.89 1013.76 1013.60 1013.42 1013.22 1012.99 1012.75 1012.50 1012.25 1012.00 1011.76 1011.53 1011.33 1011.15 1010.99 1010.87 1010.79 1010.74 1010.74 1010.77 1010.83
1021.69 1021.05 1020.35 1019.62 1018.88 1018.14 1017.44 1016.80 1016.22 1015.73 1015.31 1014.97 1014.70 1014.49 1014.32 1014.19 1014.07 1013.96 1013.84 1013.71 1013.57 1013.41 1013.25 1013.08 1012.90 1012.72 1012.55 1012.38 1012.22 1012.07 1011.94 1011.82 1011.73 1011.66 1011.62 1011.61 1011.63 1011.67
Thickness
5558 5553 5549 5547 5544 5540 5536 5532 5530 5532 5533 5526 5518 5513 5505 5499 5494 5490 5488 5486 5483 5479 5475 5472 5470 5469 5469 5468 5469 5469 5471 5472 5474 5477 5480 5485 5491 5498
5540 5535 5531 5531 5528 5524 5521 5517 5513 5511 5512 5506 5499 5495 5488 5482 5478 5475 5473 5470 5468 5466 5462 5459 5457 5456 5455 5455 5455 5455 5456 5457 5458 5460 5463 5467 5473 5479
5524 5522 5517 5512 5509 5507 5505 5501 5498 5494 5493 5490 5483 5478 5472 5467 5463 5460 5459 5458 5458 5456 5453 5450 5448 5446 5444 5444 5444 5444 5444 5445 5445 5447 5449 5453 5458 5464
5509 5505 5501 5498 5493 5490 5488 5485 5481 5476 5472 5471 5467 5463 5458 5454 5451 5449 5448 5447 5447 5447 5444 5442 5441 5439 5438 5437 5436 5436 5436 5436 5436 5437 5439 5442 5446 5450
5493 5489 5486 5482 5479 5477 5472 5469 5466 5463 5458 5456 5455 5451 5447 5444 5442 5440 5440 5438 5438 5439 5439 5438 5437 5436 5434 5433 5432 5432 5431 5431 5430 5430 5431 5433 5436 5440
5478 5475 5472 5469 5466 5462 5460 5456 5453 5450 5446 5443 5442 5441 5438 5436 5434 5433 5433 5432 5431 5432 5433 5435 5435 5434 5433 5432 5431 5430 5429 5428 5427 5427 5427 5428 5430 5432
5467 5464 5461 5457 5451 5447 5445 5444 5441 5438 5436 5434 5434 5434 5432 5430 5428 5426 5425 5425 5426 5425 5428 5430 5431 5432 5432 5432 5431 5430 5428 5427 5426 5425 5424 5425 5425 5427
5455 5453 5451 5448 5444 5437 5433 5430 5427 5427 5428 5427 5427 5427 5427 5425 5423 5420 5419 5418 5420 5421 5420 5423 5425 5428 5430 5431 5431 5430 5427 5425 5424 5422 5422 5421 5422 5423
5443 5441 5440 5439 5433 5431 5427 5424 5424 5424 5422 5421 5422 5423 5422 5419 5416 5414 5412 5411 5413 5415 5415 5419 5422 5425 5426 5429 5428 5426 5425 5423 5422 5420 5419 5418 5418 5419
5432 5431 5429 5428 5425 5419 5418 5420 5423 5425 5423 5422 5421 5419 5417 5414 5411 5409 5408 5409 5411 5412 5412 5413 5418 5420 5423 5425 5425 5424 5423 5422 5420 5419 5418 5417 5416 5416
5423 5423 5421 5418 5414 5410 5412 5419 5422 5424 5424 5421 5419 5417 5415 5412 5408 5407 5408 5407 5408 5411 5410 5408 5411 5413 5419 5423 5424 5422 5421 5420 5419 5418 5416 5415 5414 5413
5415 5415 5414 5411 5407 5407 5411 5417 5420 5422 5423 5423 5422 5420 5417 5414 5410 5407 5406 5404 5404 5405 5406 5402 5404 5405 5411 5419 5420 5420 5420 5419 5418 5417 5415 5414 5412 5413
5407 5409 5410 5406 5406 5408 5410 5415 5417 5417 5421 5423 5423 5421 5418 5415 5412 5409 5407 5405 5403 5402 5401 5398 5399 5401 5403 5410 5416 5419 5419 5419 5419 5418 5415 5413 5412 5412
5401 5404 5406 5405 5407 5410 5414 5416 5417 5419 5423 5424 5423 5421 5417 5414 5412 5411 5408 5406 5403 5401 5399 5397 5398 5399 5401 5405 5411 5416 5417 5418 5419 5419 5418 5414 5412 5411
5398 5400 5402 5406 5410 5416 5417 5418 5420 5424 5424 5424 5423 5420 5417 5414 5412 5411 5409 5407 5405 5402 5400 5399 5399 5400 5402 5404 5409 5412 5415 5417 5418 5418 5417 5416 5415 5414
5398 5402 5405 5410 5414 5417 5420 5423 5425 5425 5424 5423 5422 5421 5418 5416 5413 5411 5409 5407 5405 5404 5403 5403 5403 5403 5404 5406 5409 5413 5414 5416 5417 5416 5416 5415 5414 5415
5394 5402 5407 5412 5416 5419 5422 5425 5426 5427 5426 5425 5423 5422 5419 5416 5413 5411 5409 5407 5405 5404 5405 5406 5408 5408 5407 5406 5410 5413 5416 5417 5417 5416 5415 5414 5414 5415
5396 5403 5406 5409 5413 5417 5420 5424 5426 5427 5427 5426 5425 5422 5420 5417 5415 5413 5411 5408 5406 5405 5405 5406 5410 5413 5412 5411 5406 5412 5417 5418 5417 5416 5415 5414 5413 5414
5399 5402 5405 5408 5412 5416 5420 5423 5426 5428 5428 5428 5427 5425 5422 5420 5417 5414 5412 5410 5408 5407 5406 5406 5408 5411 5412 5411 5410 5409 5414 5416 5417 5415 5414 5414 5413 5413
5399 5402 5405 5409 5413 5417 5421 5424 5427 5430 5430 5430 5429 5428 5425 5422 5419 5416 5413 5411 5409 5408 5407 5407 5407 5408 5409 5407 5407 5406 5409 5413 5414 5414 5413 5411 5410 5411
5399 5402 5406 5410 5415 5419 5424 5427 5430 5432 5434 5433 5432 5431 5429 5426 5422 5420 5416 5411 5411 5410 5409 5407 5407 5408 5409 5410 5409 5407 5406 5406 5408 5410 5412 5413 5413 5413
5400 5404 5408 5413 5418 5423 5428 5431 5434 5437 5438 5438 5437 5435 5433 5430 5427 5424 5421 5418 5415 5413 5412 5411 5411 5411 5411 5410 5408 5406 5405 5406 5406 5407 5407 5411 5414 5414
5401 5405 5410 5416 5421 5426 5429 5432 5436 5439 5439 5440 5440 5439 5438 5436 5432 5429 5427 5425 5423 5421 5419 5417 5416 5415 5413 5411 5409 5407 5406 5405 5405 5405 5403 5404 5407 5409